DTR232 EDDM-EDHL

Flight info

Callsign DTR232
Flight time N/A
Altitude 20000
Route INPUD3Q/08L INPUD Y102 UPALA M726 NARUS DCT ABGUS DCT DIRBO T902 RARUP RARUP1V
Aircraft AT76/M-SDFGIRY/S

Departure

Time N/A
Airport Munich Airport (EDDM)

Arrival

Time 2026-04-30 18:11
Airport Lübeck Blankensee Airport (EDHL)
Time Latitude Longitude Altitude Speed Heading
2026-04-30 17:39 51.92246 11.01086 20430 ft 240 kts 360°
2026-04-30 17:41 52.05542 10.98590 20429 ft 241 kts 360°
2026-04-30 17:42 52.08875 10.97963 20421 ft 241 kts 360°
2026-04-30 17:42 52.13861 10.97022 20430 ft 241 kts 360°
2026-04-30 17:43 52.17195 10.96392 20422 ft 241 kts 360°
2026-04-30 17:44 52.22176 10.95449 20423 ft 241 kts 360°
2026-04-30 17:44 52.27184 10.94501 20425 ft 242 kts 360°
2026-04-30 17:46 52.35539 10.92913 20421 ft 242 kts 360°
2026-04-30 17:47 52.42243 10.91631 20420 ft 243 kts 360°
2026-04-30 17:48 52.48959 10.90344 20421 ft 242 kts 360°
2026-04-30 17:48 52.53996 10.89377 20421 ft 243 kts 360°
2026-04-30 17:49 52.60659 10.87521 20425 ft 247 kts 349°
2026-04-30 17:50 52.67310 10.84327 20194 ft 257 kts 352°
2026-04-30 17:51 52.72725 10.81949 19453 ft 277 kts 351°
2026-04-30 17:52 52.78413 10.79428 18749 ft 287 kts 351°
2026-04-30 17:53 52.88133 10.75113 17407 ft 294 kts 351°
2026-04-30 17:54 52.96062 10.71575 16290 ft 296 kts 350°
2026-04-30 17:55 53.04047 10.68003 15198 ft 299 kts 350°
2026-04-30 17:56 53.11887 10.64482 14161 ft 297 kts 350°
2026-04-30 17:57 53.17847 10.61796 13501 ft 292 kts 349°
2026-04-30 17:58 53.23673 10.59171 12957 ft 288 kts 349°
2026-04-30 17:59 53.31176 10.55776 12076 ft 269 kts 349°
2026-04-30 18:00 53.38283 10.52546 11194 ft 261 kts 349°
2026-04-30 18:00 53.43518 10.50167 10536 ft 259 kts 349°
2026-04-30 18:01 53.46987 10.48582 10088 ft 257 kts 349°
2026-04-30 18:02 53.52165 10.46207 9300 ft 259 kts 349°
2026-04-30 18:02 53.57431 10.43798 8328 ft 264 kts 349°
2026-04-30 18:03 53.62745 10.41399 7389 ft 265 kts 349°
2026-04-30 18:04 53.68049 10.39278 6461 ft 260 kts 340°
2026-04-30 18:05 53.74161 10.38503 5244 ft 222 kts 58°
2026-04-30 18:06 53.75782 10.47235 4057 ft 192 kts 73°
2026-04-30 18:07 53.77187 10.54704 2719 ft 152 kts 71°
2026-04-30 18:08 53.78106 10.59338 1774 ft 134 kts 71°
2026-04-30 18:09 53.79215 10.65147 945 ft 128 kts 71°
2026-04-30 18:10 53.80195 10.70163 116 ft 100 kts 72°
2026-04-30 18:11 53.80574 10.71950 55 ft 6 kts 345°
2026-04-30 18:11 53.80661 10.71577 58 ft 13 kts 268°
2026-04-30 18:12 53.80604 10.71259 55 ft 8 kts 251°
2026-04-30 18:13 53.80542 10.70938 54 ft 19 kts 252°
2026-04-30 18:13 53.80438 10.70371 58 ft 0 kts 294°
2026-04-30 18:14 53.80423 10.70315 53 ft 11 kts 243°
2026-04-30 18:15 53.80432 10.70249 58 ft 0 kts 341°
2026-04-30 18:15 53.80443 10.70242 58 ft 0 kts 341°